User: anonymous   Login
Location: Potawatomi Wildlife Park
(41.2308°N, 86.1050°W)
Time: 23:26:19
(UTC-04:00)
Language:

SL-16 R/B - Orbit

View from above orbital plane
View from above orbital plane
View from above satellite
View from above satellite

Ground track
Ground track

The orbit data is extracted from the following two-line orbital elements,

1 27006U 01056F   17086.93197185 -.00000044 +00000-0 -11146-5 0  9990
2 27006 099.2991 230.6712 0014997 158.5961 310.5208 13.70971672765271
Epoch (UTC): 27 March 2017 22:22:02
Eccentricity: 0.0014997
inclination: 99.2991°
perigee height: 985 km
apogee height: 1007 km
right ascension of ascending node: 230.6712°
argument of perigee: 158.5961°
revolutions per day: 13.70971672
mean anomaly at epoch: 310.5208°
orbit number at epoch: 76527

The dashed part of the orbit path shows where the satellite is in the earth's shadow,  

DLR